Location: Julian California
(33.0790°N, 116.6010°W)
Time: 14:17:47
(UTC-07:00)

Meteor 2-5 Rocket - Pass Details

Date: 14 June 2018
Orbit: 833 x 911 km, 81.2° (Epoch: 20 June)

Event Time Altitude Azimuth Distance (km) Brightness Sun altitude
Exits shadow 22:10:06 32° 190° (S) 1,513 4.7 -22.4°
Maximum altitude 22:13:02 86° 277° (W) 916 3.8 -22.7°
Drops below altitude 10° 22:19:00 10° 7° (N) 2,598 6.8 -23.5°
Sets 22:21:29 0° 8° (N) 3,540 7.6 -23.8°
